[[[{"header":{"parameterUnit":"kt","parameterCategory":2,"dx":1,"dy":1,"la1":30.253999710083008,"la2":30.299108505249023,"lo1":-89.0895004272461,"lo2":-89.04439544677734,"nx":28,"ny":28,"refTime":"2022-10-19T09:00:00:Z","depth":0,"parameterNumber":1,"parameterNumberName":"U-component_of_WINDS"},"data":[-0.4494,-0.4522,-0.4538,-0.4576,-0.4597,-0.4625,-0.464,-0.4661,-0.4683,-0.4717,-0.474,-0.4759,-0.4786,-0.4816,-0.4841,-0.4849,-0.4858,-0.4854,-0.4864,-0.4868,-0.4869,-0.4871,-0.4866,-0.4856,-0.4856,-0.4857,-0.4857,-0.4857,-0.4488,-0.4509,-0.4535,-0.4572,-0.4593,-0.4606,-0.4636,-0.4653,-0.4678,-0.4705,-0.4729,-0.4762,-0.4789,-0.4819,-0.4848,-0.486,-0.4868,-0.4866,-0.4865,-0.4869,-0.4874,-0.4868,-0.4859,-0.4859,-0.4859,-0.4859,-0.4859,-0.4859,-0.4482,-0.4498,-0.4531,-0.456,-0.4583,-0.4607,-0.4625,-0.465,-0.4675,-0.471,-0.4726,-0.4755,-0.4785,-0.4831,-0.485,-0.4872,-0.4877,-0.4881,-0.4882,-0.4882,-0.4879,-0.487,-0.4878,-0.4879,-0.4879,-0.4879,-0.4879,0,-0.4482,-0.4495,-0.4523,-0.4554,-0.4577,-0.4604,-0.4631,-0.4643,-0.4679,-0.4699,-0.4729,-0.4749,-0.4789,-0.4819,-0.4851,-0.4872,-0.4888,-0.4893,-0.4896,-0.4887,-0.4874,-0.4879,-0.4884,-0.4893,-0.4893,-0.4894,-0.4894,-0.4894,-0.4475,-0.4494,-0.4538,-0.4555,-0.4576,-0.4603,-0.4623,-0.4653,-0.4673,-0.4711,-0.4724,-0.4756,-0.4782,-0.4828,-0.4858,-0.4888,-0.4896,-0.4897,-0.4901,-0.4891,-0.4894,-0.4892,-0.4893,-0.4896,-0.4896,-0.4895,-0.4895,0,-0.4468,-0.4499,-0.4535,-0.4578,-0.459,-0.4607,-0.4644,-0.4663,-0.4686,-0.4715,-0.4723,-0.476,-0.479,-0.482,-0.4861,-0.4876,-0.4901,-0.491,-0.4889,-0.4892,-0.4894,-0.4893,-0.4902,-0.4903,-0.4916,-0.4915,-0.4915,0,-0.4474,-0.4499,-0.4543,-0.4562,-0.4589,-0.4621,-0.4647,-0.4671,-0.47,-0.4723,-0.4748,-0.4769,-0.4806,-0.4831,-0.4853,-0.488,-0.4888,-0.4901,-0.4906,-0.4898,-0.4896,-0.4909,-0.4909,-0.4921,-0.4921,-0.4921,-0.4921,0,-0.446,-0.4515,-0.4547,-0.4565,-0.4615,-0.4629,-0.4651,-0.4686,-0.4706,-0.4737,-0.475,-0.4784,-0.4803,-0.4827,-0.4856,-0.4857,-0.4891,-0.4898,-0.4903,-0.4902,-0.491,-0.4909,-0.4908,-0.4921,-0.4921,-0.4921,-0.4921,0,-0.447,-0.4503,-0.4546,-0.4588,-0.4601,-0.4623,-0.4659,-0.4686,-0.4721,-0.4737,-0.4762,-0.4784,-0.4812,-0.4817,-0.4855,-0.4848,-0.4864,-0.488,-0.4881,-0.4885,-0.489,-0.4883,-0.4881,-0.4882,-0.4887,-0.4887,-0.4887,0,-0.4444,-0.4498,-0.4527,-0.4568,-0.4597,-0.4623,-0.4648,-0.468,-0.4704,-0.4731,-0.4758,-0.479,-0.48,-0.4815,-0.483,-0.4858,-0.4867,-0.4858,-0.4894,-0.4895,-0.4882,-0.4881,-0.4872,-0.4878,-0.4884,-0.4884,-0.4885,0,-0.4429,-0.4493,-0.4499,-0.452,-0.457,-0.4596,-0.4625,-0.4665,-0.4681,-0.4716,-0.474,-0.4787,-0.4796,-0.4821,-0.4843,-0.4857,-0.4862,-0.4866,-0.4867,-0.4862,-0.4887,-0.4877,-0.4878,-0.4873,-0.4874,-0.4874,-0.4882,0,-0.4431,-0.4465,-0.4483,-0.4533,-0.4558,-0.4588,-0.4625,-0.4646,-0.4665,-0.4691,-0.4728,-0.4766,-0.4808,-0.4819,-0.4839,-0.4862,-0.4864,-0.4874,-0.4882,-0.4881,-0.4885,-0.4886,-0.4873,-0.4874,-0.4874,-0.4874,0,0,-0.4398,-0.4447,-0.4482,-0.4513,-0.4537,-0.4567,-0.4594,-0.4621,-0.4676,-0.4691,-0.4695,-0.4768,-0.4799,-0.4841,-0.4844,-0.4862,-0.4869,-0.4869,-0.4882,-0.4882,-0.4883,-0.4886,-0.4887,-0.4875,-0.4875,-0.4875,-0.4876,0,-0.4407,-0.444,-0.4469,-0.4498,-0.4544,-0.4571,-0.4578,-0.4629,-0.4647,-0.4687,-0.4711,-0.4739,-0.4799,-0.4827,-0.485,-0.4864,-0.4882,-0.4875,-0.4869,-0.4884,-0.4885,-0.4885,-0.4887,-0.4888,-0.4876,-0.4876,-0.4876,0,-0.4397,-0.4435,-0.4454,-0.4513,-0.4544,-0.4575,-0.4591,-0.4626,-0.4649,-0.4682,-0.4722,-0.4748,-0.4791,-0.4828,-0.4846,-0.4851,-0.4891,-0.4887,-0.4886,-0.4889,-0.4906,-0.4906,-0.4906,-0.4904,-0.4904,-0.4904,0,0,-0.44,-0.4433,-0.4486,-0.4518,-0.4535,-0.4578,-0.46,-0.4622,-0.4661,-0.4677,-0.4713,-0.4749,-0.4784,-0.4806,-0.4841,-0.4877,-0.4888,-0.4889,-0.4888,-0.4886,-0.4888,-0.4905,-0.4905,-0.4904,-0.4904,-0.4903,0,0,-0.4402,-0.4464,-0.4478,-0.452,-0.4556,-0.4611,-0.4629,-0.4646,-0.4682,-0.4683,-0.4723,-0.4735,-0.4771,-0.4797,-0.4789,-0.4844,-0.4851,-0.4854,-0.4826,-0.4825,-0.4824,-0.4817,-0.4812,0,0,0,0,0,-0.4432,-0.4456,-0.4468,-0.4481,-0.4558,-0.4604,-0.4614,-0.4648,-0.4651,-0.4663,-0.4696,-0.4714,-0.48,-0.4794,-0.4806,-0.4815,-0.49,-0.4901,-0.4901,-0.4874,-0.4873,-0.4871,0,0,0,0,0,0,-0.4438,-0.4454,-0.4467,-0.4522,-0.454,-0.4604,-0.4616,-0.4626,-0.465,-0.4653,-0.4707,-0.4716,-0.4746,-0.479,-0.48,-0.4808,-0.4809,-0.4901,-0.4901,-0.4901,-0.4874,-0.4872,-0.4871,0,0,0,0,0,-0.4442,-0.4455,-0.457,-0.4522,-0.4537,-0.4588,-0.4615,-0.4624,-0.4643,-0.4695,-0.4704,-0.4667,-0.4745,-0.4756,-0.4796,-0.4802,-0.4802,-0.4806,-0.4901,-0.4901,-0.4902,-0.4873,0,0,0,0,0,0,-0.4446,-0.4463,-0.4574,-0.458,-0.4517,-0.4585,-0.4597,-0.4622,-0.4684,-0.4694,-0.4656,-0.4658,-0.4745,-0.4754,-0.4762,-0.4798,-0.4796,-0.48,-0.4802,-0.4901,-0.4901,-0.4902,0,0,0,0,0,0,-0.4456,-0.4468,-0.4577,-0.4568,-0.4573,-0.4582,-0.4593,-0.4633,-0.4685,-0.4642,-0.4645,-0.4656,-0.4732,-0.4752,-0.4759,-0.4819,-0.4792,-0.4796,-0.4798,-0.48,-0.4901,-0.4902,0,0,0,0,0,0,-0.4462,-0.4471,-0.4567,-0.4571,-0.4575,-0.4643,-0.4618,-0.4695,-0.4677,-0.4639,-0.4676,-0.4676,-0.473,-0.4738,-0.4756,-0.4814,-0.4818,-0.4792,-0.4795,-0.4796,-0.4797,0,0,0,0,0,0,0,-0.4466,-0.4392,-0.4539,-0.4573,-0.4577,-0.4634,-0.4635,-0.4637,-0.4677,-0.4677,-0.4676,-0.4676,-0.4771,-0.4775,-0.4779,-0.4809,0,0,-0.4792,-0.4793,0,0,0,0,0,0,0,0,-0.4389,-0.4391,-0.4539,-0.454,-0.4542,-0.4634,-0.4635,-0.4637,-0.4677,-0.4677,-0.4677,-0.4676,-0.4772,-0.4775,-0.4779,0,0,0,0,0,0,0,0,0,0,0,0,0,0,0,-0.4539,-0.454,0,-0.4634,-0.4635,-0.4636,-0.4677,-0.4677,-0.4677,-0.4676,-0.4773,-0.4776,-0.4778,0,0,0,0,0,0,0,0,0,0,0,0,0,0,0,0,0,0,0,0,0,0,0,0,0,0,0,0,0,0,0,0,0,0,0,0,0,0,0,0,0,0,0,0,0,0,0,0,0,0,0,0,0,0,0,0,0,0,0,0,0,0,0,0,0,0,0,0,0]}],[{"header":{"parameterUnit":"kt","parameterCategory":2,"dx":1,"dy":1,"la1":30.253999710083008,"la2":30.299108505249023,"lo1":-89.0895004272461,"lo2":-89.04439544677734,"nx":28,"ny":28,"refTime":"2022-10-19T09:00:00:Z","depth":0,"parameterNumber":2,"parameterNumberName":"V-component_of_WINDS"},"data":[-6.7255,-6.7375,-6.7397,-6.7543,-6.7588,-6.7689,-6.7733,-6.7791,-6.7843,-6.7966,-6.804,-6.8074,-6.8132,-6.8224,-6.8304,-6.8317,-6.8347,-6.8372,-6.8382,-6.8253,-6.8236,-6.822,-6.8193,-6.838,-6.838,-6.851,-6.8511,-6.8512,-6.7154,-6.72,-6.7285,-6.7382,-6.7454,-6.7443,-6.7519,-6.7579,-6.767,-6.7736,-6.7811,-6.792,-6.8009,-6.8061,-6.8149,-6.8202,-6.82,-6.8224,-6.8218,-6.8226,-6.8091,-6.8061,-6.8223,-6.8223,-6.8223,-6.8223,-6.8223,-6.8223,-6.6975,-6.7046,-6.7119,-6.7211,-6.7266,-6.7331,-6.7402,-6.7443,-6.7525,-6.7623,-6.7634,-6.7737,-6.7805,-6.7924,-6.7968,-6.8047,-6.8025,-6.8057,-6.8064,-6.807,-6.8073,-6.7874,-6.8064,-6.8064,-6.8064,-6.8063,-6.8063,0,-6.6849,-6.6863,-6.6948,-6.7038,-6.7107,-6.7179,-6.7248,-6.7293,-6.733,-6.7397,-6.7494,-6.7553,-6.767,-6.7762,-6.7851,-6.7891,-6.7883,-6.7887,-6.7908,-6.7901,-6.7883,-6.7888,-6.7662,-6.788,-6.7879,-6.7878,-6.7877,-6.7876,-6.6665,-6.6748,-6.6836,-6.6892,-6.6936,-6.7026,-6.7084,-6.7111,-6.7171,-6.7259,-6.732,-6.7415,-6.7491,-6.7642,-6.7687,-6.7773,-6.7769,-6.785,-6.7782,-6.7773,-6.7765,-6.7758,-6.7764,-6.786,-6.7862,-6.7864,-6.7865,0,-6.6558,-6.6597,-6.6733,-6.6812,-6.6835,-6.6919,-6.6986,-6.7058,-6.7091,-6.7194,-6.722,-6.7269,-6.7364,-6.7397,-6.7512,-6.7525,-6.7657,-6.7654,-6.7632,-6.7632,-6.7703,-6.7694,-6.794,-6.7971,-6.7783,-6.7785,-6.7786,0,-6.6415,-6.6523,-6.6573,-6.665,-6.677,-6.6795,-6.6912,-6.6952,-6.7013,-6.7095,-6.7094,-6.7171,-6.7201,-6.7282,-6.7302,-6.7417,-6.7441,-6.7456,-6.7459,-6.7453,-6.7451,-6.7481,-6.747,-6.747,-6.7468,-6.7467,-6.7466,0,-6.624,-6.6396,-6.6522,-6.6563,-6.6659,-6.6717,-6.6759,-6.6829,-6.6885,-6.6964,-6.7,-6.709,-6.7138,-6.7206,-6.7231,-6.7184,-6.7375,-6.7314,-6.7389,-6.7389,-6.7427,-6.7423,-6.7636,-6.7465,-6.7464,-6.7464,-6.7463,0,-6.6128,-6.621,-6.6389,-6.6467,-6.6507,-6.6591,-6.6681,-6.6761,-6.6834,-6.6853,-6.6915,-6.6917,-6.7024,-6.6961,-6.7107,-6.7038,-6.7084,-6.711,-6.7116,-6.7124,-6.7051,-6.7161,-6.7365,-6.7384,-6.7135,-6.7132,-6.713,0,-6.5915,-6.6107,-6.613,-6.6299,-6.6392,-6.6384,-6.6477,-6.6543,-6.6576,-6.6657,-6.6693,-6.6786,-6.6747,-6.678,-6.6849,-6.6888,-6.6979,-6.6878,-6.6987,-6.6991,-6.6963,-6.7153,-6.7172,-6.7317,-6.7095,-6.7099,-6.7102,0,-6.5754,-6.5872,-6.5901,-6.5948,-6.6043,-6.6121,-6.6229,-6.6328,-6.638,-6.6457,-6.6544,-6.6679,-6.6652,-6.6708,-6.672,-6.679,-6.6918,-6.6752,-6.6754,-6.6777,-6.7083,-6.71,-6.7125,-6.691,-6.6914,-6.6918,-6.7074,0,-6.5567,-6.567,-6.5752,-6.5859,-6.5926,-6.6036,-6.6073,-6.6137,-6.6142,-6.6174,-6.6307,-6.6371,-6.647,-6.6509,-6.6514,-6.6665,-6.6644,-6.6616,-6.6554,-6.668,-6.6731,-6.6753,-6.6473,-6.6471,-6.647,-6.6469,0,0,-6.535,-6.5499,-6.5523,-6.563,-6.5686,-6.5677,-6.579,-6.5845,-6.5955,-6.5993,-6.596,-6.6157,-6.6211,-6.6367,-6.641,-6.6452,-6.648,-6.6436,-6.6621,-6.6637,-6.6653,-6.6708,-6.673,-6.6466,-6.6466,-6.6466,-6.6465,0,-6.5289,-6.5349,-6.5463,-6.5521,-6.5608,-6.5638,-6.5665,-6.5749,-6.5775,-6.5908,-6.5895,-6.5979,-6.6139,-6.6195,-6.6244,-6.6419,-6.6403,-6.6448,-6.6527,-6.6606,-6.6625,-6.6641,-6.6699,-6.672,-6.6462,-6.6462,-6.6462,0,-6.5134,-6.5197,-6.5257,-6.5391,-6.5447,-6.5544,-6.5489,-6.5595,-6.5666,-6.5649,-6.578,-6.5821,-6.59,-6.6046,-6.6113,-6.6084,-6.633,-6.6261,-6.6271,-6.6277,-6.6355,-6.6377,-6.6397,-6.6134,-6.6133,-6.6131,0,0,-6.5075,-6.5173,-6.5249,-6.538,-6.5417,-6.5463,-6.552,-6.553,-6.5604,-6.5633,-6.5685,-6.5755,-6.5847,-6.5907,-6.5996,-6.6152,-6.6168,-6.6219,-6.6235,-6.6247,-6.6261,-6.6341,-6.6364,-6.6127,-6.6127,-6.6126,0,0,-6.5047,-6.5141,-6.5133,-6.5291,-6.5362,-6.5444,-6.5522,-6.5514,-6.5598,-6.5589,-6.561,-6.563,-6.5767,-6.5808,-6.5738,-6.5973,-6.5912,-6.5929,-6.5942,-6.5962,-6.5977,-6.5962,-6.5688,0,0,0,0,0,-6.5004,-6.5129,-6.5121,-6.5153,-6.5322,-6.5449,-6.547,-6.5492,-6.5447,-6.5508,-6.5549,-6.553,-6.5774,-6.5713,-6.5743,-6.5819,-6.6064,-6.6075,-6.6085,-6.6138,-6.6159,-6.6176,0,0,0,0,0,0,-6.5016,-6.5056,-6.5118,-6.5205,-6.5243,-6.5445,-6.5373,-6.5382,-6.5441,-6.5435,-6.5523,-6.5533,-6.5552,-6.5698,-6.5726,-6.5798,-6.5679,-6.6068,-6.6077,-6.6086,-6.6145,-6.6162,-6.6176,0,0,0,0,0,-6.5027,-6.5058,-6.5324,-6.5203,-6.5236,-6.5295,-6.5368,-6.5376,-6.5421,-6.5486,-6.5496,-6.5432,-6.5554,-6.5578,-6.5715,-6.5785,-6.566,-6.567,-6.6074,-6.6082,-6.6088,-6.6153,0,0,0,0,0,0,-6.5034,-6.5065,-6.5331,-6.5342,-6.5158,-6.5284,-6.5305,-6.537,-6.5469,-6.5479,-6.5396,-6.539,-6.5557,-6.5575,-6.5594,-6.5779,-6.5645,-6.5655,-6.5662,-6.608,-6.6086,-6.6091,0,0,0,0,0,0,-6.5048,-6.5074,-6.5337,-6.5278,-6.5283,-6.5274,-6.5292,-6.5412,-6.547,-6.5372,-6.5371,-6.5392,-6.5528,-6.5573,-6.5588,-6.5773,-6.5633,-6.5643,-6.565,-6.5654,-6.6085,-6.6089,0,0,0,0,0,0,-6.5059,-6.5082,-6.5276,-6.5279,-6.5283,-6.5405,-6.5379,-6.555,-6.5422,-6.5368,-6.5411,-6.5406,-6.5527,-6.5542,-6.5584,-6.5763,-6.5771,-6.5634,-6.564,-6.5645,-6.5648,0,0,0,0,0,0,0,-6.5069,-6.4914,-6.5268,-6.528,-6.5282,-6.5441,-6.5444,-6.5447,-6.5421,-6.5416,-6.5412,-6.5408,-6.5578,-6.5588,-6.5599,-6.5755,0,0,-6.5633,-6.5638,0,0,0,0,0,0,0,0,-6.4905,-6.4911,-6.5268,-6.527,-6.5272,-6.5442,-6.5444,-6.5447,-6.542,-6.5416,-6.5413,-6.5409,-6.5581,-6.5589,-6.5598,0,0,0,0,0,0,0,0,0,0,0,0,0,0,0,-6.5268,-6.527,0,-6.5442,-6.5444,-6.5446,-6.5419,-6.5416,-6.5414,-6.5411,-6.5583,-6.559,-6.5597,0,0,0,0,0,0,0,0,0,0,0,0,0,0,0,0,0,0,0,0,0,0,0,0,0,0,0,0,0,0,0,0,0,0,0,0,0,0,0,0,0,0,0,0,0,0,0,0,0,0,0,0,0,0,0,0,0,0,0,0,0,0,0,0,0,0,0,0,0]}]]]